Regional Weather Roundup
Issued by NWS Albany, NY

Home | Current Version | Previous Version | Text Only | Print | Product List | Glossary On
Versions: 1 2 3 4 5 6 7 8 9 10 11 12 13 14 15 16 17 18 19 20 21 22 23 24 25 26 27 28 29 30 31 32 33 34 35 36 37 38 39 40 41 42 43 44 45 46 47 48 49 50
000
ASUS41 KALY 300710
RWRALY

NEW YORK STATE HOURLY WEATHER ROUNDUP
NATIONAL WEATHER SERVICE ALBANY NY
300 AM EDT TUE SEP 30 2014

NOTE: "FAIR" INDICATES FEW OR NO CLOUDS BELOW 12,000 FEET WITH NO
SIGNIFICANT WEATHER AND/OR NO OBSTRUCTIONS TO VISIBILITY.

NYZ032-033-038>043-046>054-057>066-NYZ062>081-300800-
EAST


CITY           SKY/WX    TMP DP  RH WIND       PRES   REMARKS
ALBANY         FOG       56  55  97 CALM      29.94S VSB 1
GLENS FALLS    CLOUDY    52  50  93 CALM      29.95S
POUGHKEEPSIE   CLOUDY    62  60  93 CALM      29.92S
NEWBURGH       MOCLDY    63  59  88 SE6       29.94F
MONTGOMERY     CLOUDY    58  56  93 CALM      29.92F
WHITE PLAINS     N/A     65  63  93 E3        29.93F FOG
ISLIP          CLOUDY    67  65  93 SW3       29.91F
NEW YORK CITY  CLOUDY    71  57  61 S5        29.92S
CENTRAL PARK   CLOUDY    69  56  62 W3        29.95F
$$

NYZ005>009-017-018-044>046-055-056-300800-
CENTRAL


CITY           SKY/WX    TMP DP  RH WIND       PRES   REMARKS
FULTON         CLEAR     59  56  89 VRB3      29.88S
SYRACUSE       PTCLDY    57  55  93 E3        29.88S
ROME           CLEAR     55  53  93 E5        29.92S
ELMIRA         CLEAR     52  51  97 CALM      29.90S FOG
BINGHAMTON     CLOUDY    58  55  90 CALM      29.92S
MONTICELLO     PTCLDY    54  52  94 CALM      29.96S
$$

NYZ026>034-041>043-300800-
NORTH


CITY           SKY/WX    TMP DP  RH WIND       PRES   REMARKS
WATERTOWN      CLEAR     55  49  80 CALM      29.88F
FORT DRUM      NOT AVBL
MASSENA        CLOUDY    49  47  93 E8        29.96S FOG
SARANAC LAKE   FOG       44  43  96 CALM      29.94S VSB 3/4
PLATTSBURGH    CLOUDY    48  44  86 NW3       29.97F
$$

NYZ001>004-010>016-019>021-300800-
WEST


CITY           SKY/WX    TMP DP  RH WIND       PRES   REMARKS
NIAGARA FALLS  PTCLDY    59  56  89 CALM      29.87S FOG
BUFFALO        PTCLDY    57  52  83 CALM      29.88F
DUNKIRK        CLEAR     52  50  93 CALM      29.88F
JAMESTOWN      CLOUDY    52  50  93 S5        29.91F VSB 1/4
WELLSVILLE     PTCLDY    54  52  93 CALM      29.94S FOG
ROCHESTER      MOCLDY    57  55  93 SW3       29.88F
PENN YAN       CLEAR     57  56  96 SW3       29.89F
$$

             KEY
       WCI = WIND CHILL INDEX
       VSB = VISIBILITY
       HX  = HEAT INDEX
$$


USA.gov is the U.S. government's official web portal to all federal, state and local government web resources and services.